Location: Columbia
(38.9520°N, 92.3340°W)
Time: 17:06:38
(UTC-05:00)

SJ-11-01 - Visible Passes

Search period start: 23 April 2014 00:00
Search period end: 03 May 2014 00:00
Orbit: 686 x 700 km, 98.0° (Epoch: 23 April)

Date Brightness Start Highest point End Pass type
(mag) Time Alt. Az. Time Alt. Az. Time Alt. Az.
23 Apr 4.6 21:42:32 22° S 21:45:31 64° W 21:50:14 10° NNW visible
24 Apr 5.2 20:44:05 11° SE 20:47:59 32° ENE 20:52:11 10° N visible
24 Apr 6.2 22:22:46 15° SW 22:25:33 24° W 22:29:24 10° NW visible
25 Apr 4.2 21:24:20 20° SSE 21:27:41 84° ENE 21:32:27 10° N visible
26 Apr 5.7 20:26:42 10° ESE 20:30:18 22° ENE 20:33:54 10° NNE visible
26 Apr 5.6 22:04:34 18° SSW 22:07:36 37° W 22:12:00 10° NNW visible
27 Apr 4.5 21:06:08 15° SSE 21:09:53 54° ENE 21:14:31 10° N visible
27 Apr 6.9 22:45:14 10° SW 22:47:46 14° W 22:50:18 10° WNW visible
28 Apr 4.8 21:46:22 19° S 21:49:42 57° W 21:54:23 10° NNW visible
29 Apr 5.0 20:47:56 11° SE 20:52:08 36° ENE 20:56:27 10° N visible
29 Apr 6.4 22:26:37 12° SW 22:29:45 22° W 22:33:25 10° NW visible
30 Apr 4.3 21:28:10 17° SSE 21:31:51 88° WSW 21:36:37 10° NNW visible
01 May 5.6 20:30:38 10° ESE 20:34:25 24° ENE 20:38:12 10° NNE visible
01 May 5.8 22:08:25 15° SSW 22:11:47 33° W 22:16:04 10° NNW visible
02 May 4.4 21:09:58 14° SSE 21:14:01 61° ENE 21:18:42 10° N visible
02 May 6.9 22:49:52 10° WSW 22:51:58 13° W 22:54:03 10° WNW visible
